Springfield, IL

7:55 PM CST on January 21, 2017 (GMT -0600)
Springfield

Weather History for KSPI - March, 2012

Change the Weather History Date:

Friday, March 2, 2012

  Actual Average Record
Temperature  
Mean Temperature 45 °F 37 °F  
Max Temperature 55 °F 46 °F 76 °F (1976)
Min Temperature 34 °F 28 °F -2 °F (1980)
Degree Days  
Heating Degree Days 20 28  
Month to date heating degree days 42 57  
Since 1 July heating degree days 3564 4328  
Cooling Degree Days 0 0  
Month to date cooling degree days 0 0  
Year to date cooling degree days 0 0  
Moisture  
Dew Point 36 °F    
Average Humidity 75    
Maximum Humidity 89    
Minimum Humidity 60    
Precipitation  
Precipitation 0.30 in 0.07 in 1.42 in (1940)
Month to date precipitation 0.30 0.15  
Year to date precipitation 3.37 3.78  
Snow  
Snow 0.00 in 0.10 in 6.30 in (1978)
Month to date snowfall 0.0 0.2  
Since 1 July snowfall 6.4 18.3  
Snow Depth 0.00 in    
Sea Level Pressure  
Sea Level Pressure 29.55 in    
Wind  
Wind Speed 12 mph (WNW)    
Max Wind Speed 31 mph    
Max Gust Speed 39 mph    
Visibility 9 miles    
Events Rain , Thunderstorm    
T = Trace of Precipitation, MM = Missing Value Source: NWS Daily Summary

Daily Weather History Graph

Daily Weather History Graph

Search for Another Location

Airport or City:

Trip Planner

Search our weather history database for the weather conditions in past years. The results will help you decide how hot, cold, wet, or windy it might be!

Date:

Astronomy

Mar. 02, 2012 Rise Set
Actual Time 6:29 AM CST 5:52 PM CST
Civil Twilight 6:02 AM CST 6:19 PM CST
Nautical Twilight 5:31 AM CST 6:50 PM CST
Astronomical Twilight 5:00 AM CST 7:22 PM CST
Moon 12:05 PM CST (3/2) 2:19 AM CST (3/2)
Length of Visible Light 12h 16m
Length of Day
11h 22m
Waxing Gibbous, 66% of the Moon is Illuminated
Mar 2
Waxing Gibbous
Mar 8
Full
Mar 14
Last Quarter
Mar 22
New
Mar 30
First Quarter

Hourly Weather History & Observations

Time (CST) Temp. Windchill Dew Point Humidity Pressure Visibility Wind Dir Wind Speed Gust Speed Precip Events Conditions
12:52 AM 45.0 °F 39.7 °F 33.1 °F 63% 29.60 in 10.0 mi ESE 10.4 mph - N/A   Clear
1:52 AM 44.1 °F 39.5 °F 34.0 °F 68% 29.57 in 10.0 mi SE 8.1 mph - N/A   Clear
2:52 AM 44.1 °F 39.5 °F 34.0 °F 68% 29.53 in 10.0 mi SE 8.1 mph - N/A   Clear
3:52 AM 43.0 °F 38.8 °F 34.0 °F 71% 29.50 in 10.0 mi ESE 6.9 mph - N/A   Clear
4:52 AM 44.1 °F 40.8 °F 34.0 °F 68% 29.48 in 10.0 mi ESE 5.8 mph - N/A   Clear
5:52 AM 46.0 °F - 36.0 °F 68% 29.49 in 10.0 mi Calm Calm - N/A   Scattered Clouds
6:52 AM 46.0 °F 44.8 °F 37.9 °F 73% 29.50 in 10.0 mi WNW 3.5 mph - N/A Rain Light Rain
7:29 AM 46.4 °F 42.9 °F 42.8 °F 87% 29.44 in 7.0 mi ENE 6.9 mph - 0.06 in Rain , Thunderstorm Thunderstorms and Rain
7:52 AM 45.0 °F - 42.1 °F 90% 29.44 in 2.5 mi Calm Calm - 0.11 in Rain , Thunderstorm Thunderstorms and Rain
7:55 AM 44.6 °F 40.7 °F 42.8 °F 93% 29.42 in 4.0 mi NE 6.9 mph - 0.04 in Rain , Thunderstorm Thunderstorms and Rain
8:52 AM 43.0 °F 41.3 °F 39.9 °F 89% 29.42 in 6.0 mi North 3.5 mph - 0.15 in Rain , Thunderstorm Thunderstorms and Rain
9:15 AM 44.6 °F - 39.2 °F 81% 29.41 in 8.0 mi Calm Calm - 0.03 in Rain Rain
9:52 AM 45.0 °F 39.7 °F 42.1 °F 90% 29.38 in 10.0 mi ESE 10.4 mph - 0.04 in Rain Rain
10:52 AM 48.9 °F - 45.0 °F 86% 29.33 in 10.0 mi East 6.9 mph - 0.00 in   Clear
11:52 AM 54.0 °F - 46.9 °F 77% 29.33 in 10.0 mi Variable 5.8 mph - N/A   Mostly Cloudy
11:59 AM 55.4 °F - 46.4 °F 72% 29.32 in 10.0 mi Variable 3.5 mph - N/A   Mostly Cloudy
12:52 PM 43.0 °F 32.7 °F 39.0 °F 86% 29.38 in 5.0 mi WNW 28.8 mph 38.0 mph N/A   Overcast
1:52 PM 41.0 °F 32.2 °F 36.0 °F 82% 29.43 in 6.0 mi NW 18.4 mph 32.2 mph N/A   Haze
2:52 PM 39.0 °F 28.3 °F 34.0 °F 82% 29.51 in 9.0 mi WNW 24.2 mph 32.2 mph N/A   Overcast
3:52 PM 37.9 °F 27.6 °F 32.0 °F 79% 29.58 in 10.0 mi WNW 20.7 mph 32.2 mph N/A   Overcast
4:52 PM 37.9 °F 27.1 °F 33.1 °F 83% 29.65 in 10.0 mi WNW 23.0 mph 32.2 mph N/A   Overcast
5:04 PM 37.4 °F 25.9 °F 32.0 °F 81% 29.66 in 10.0 mi WNW 25.3 mph 39.1 mph 0.00 in Rain Light Rain
5:52 PM 37.9 °F 28.5 °F 33.1 °F 83% 29.71 in 10.0 mi WNW 17.3 mph 28.8 mph 0.00 in   Overcast
6:17 PM 37.4 °F 28.9 °F 32.0 °F 81% 29.72 in 10.0 mi WNW 13.8 mph 25.3 mph N/A   Scattered Clouds
6:52 PM 36.0 °F 26.7 °F 30.9 °F 82% 29.76 in 10.0 mi WNW 15.0 mph - N/A   Partly Cloudy
7:52 PM 36.0 °F 26.7 °F 30.9 °F 82% 29.78 in 10.0 mi West 15.0 mph - N/A   Clear
8:52 PM 35.1 °F 26.4 °F 30.9 °F 85% 29.79 in 10.0 mi West 12.7 mph - N/A   Clear
9:52 PM 35.1 °F 25.9 °F 30.9 °F 85% 29.78 in 10.0 mi West 13.8 mph - N/A   Clear
10:52 PM 35.1 °F 26.9 °F 30.9 °F 85% 29.78 in 10.0 mi West 11.5 mph - N/A   Clear
11:52 PM 35.1 °F 27.9 °F 30.9 °F 85% 29.78 in 10.0 mi West 9.2 mph - N/A   Clear